Regional Weather Roundup
Issued by NWS

Home | Current Version | Previous Version | Graphics & Text | Print | Product List | Glossary On
Versions: 1 2 3 4 5 6 7 8 9 10 11 12 13 14 15 16 17 18 19 20 21 22 23 24 25 26 27 28 29 30 31 32 33 34 35 36 37 38 39 40 41 42 43 44 45 46 47 48 49 50
000
ASUS43 KMKX 280700
RWRWI

WISCONSIN REGIONAL WEATHER ROUNDUP
NATIONAL WEATHER SERVICE MILWAUKEE/SULLIVAN WI
200 AM CDT THU AUG 28 2014

NOTE: "FAIR" INDICATES FEW OR NO CLOUDS BELOW 12,000 FEET WITH NO
SIGNIFICANT WEATHER AND/OR OBSTRUCTIONS TO VISIBILITY.

WIZ001-002-006>008-014>016-023>028-280800-
NORTHWEST WISCONSIN

CITY           SKY/WX    TMP DP  RH WIND       PRES   REMARKS
SUPERIOR ARPT  CLEAR     53  53  99 CALM      30.15S
ASHLAND        MOCLDY    48  47  96 CALM      30.17S
HAYWARD        CLEAR     49  47  93 CALM      30.17S
SIREN          CLEAR     51  49  92 CALM      30.15S
RICE LAKE      CLEAR     53  52  95 CALM      30.18S
LADYSMITH      CLEAR     54  50  87 E5        30.19S
EAU CLAIRE     CLEAR     56  55  97 NE6       30.15S
MENOMONIE      SUNNY     58  56  92 CALM      30.16S
NEW RICHMOND   CLOUDY    59  57  92 CALM      30.15F
OSCEOLA        CLOUDY    62  59  91 E3        30.17S
$$

WIZ003>005-009-010-017-018-280800-
NORTH CENTRAL WISCONSIN

CITY           SKY/WX    TMP DP  RH WIND       PRES   REMARKS
WOODRUFF       CLEAR     51  48  90 CALM      30.19F
RHINELANDER    CLEAR     46  43  89 CALM      30.20S
EAGLE RIVER    FOG       43  43 100 CALM      30.20S VSB 3/4
LAND O LAKES   CLEAR     41  41 100 CALM      30.21R
PHILLIPS       CLEAR     48  47  97 CALM      30.18S
TOMAHAWK       CLEAR     43  42  97 CALM      30.19F
MEDFORD        CLEAR     50  48  94 E3        30.18S
MERRILL        CLEAR     47  47 100 CALM      30.19S
$$

WIZ029-030-035-036-043>047-280800-
CENTRAL WISCONSIN

CITY           SKY/WX    TMP DP  RH WIND       PRES   REMARKS
WAUSAU         CLEAR     56  48  74 NE6       30.17S
MOSINEE        CLEAR     54  50  87 NE6       30.18F
MARSHFIELD     CLEAR     57  50  77 NE8       30.17S
STEVENS POINT  CLEAR     52  50  92 NE5       30.17S
WAUPACA        PTCLDY    60  58  94 CALM      30.16S
WAUTOMA        NOT AVBL
WISC RAPIDS    CLEAR     55  52  89 CALM      30.18R
CAMP DOUGLAS   NOT AVBL
$$

WIZ011>013-019>022-031-037>040-048>050-280800-
NORTHEAST WISCONSIN

CITY           SKY/WX    TMP DP  RH WIND       PRES   REMARKS
ANTIGO         CLEAR     50  49  94 NE7       30.19S
STURGEON BAY   PTCLDY    59  52  77 E6        30.17F
GREEN BAY      MOCLDY    55  54  96 E6        30.17R
MANITOWOC      NOT AVBL
APPLETON       MOCLDY    61  55  82 CALM      30.17S
CLINTONVILLE   MOCLDY    57  55  94 CALM      30.16S
OSHKOSH        MOCLDY    58  57  97 CALM      30.15F
$$

WIZ032>034-041-042-053>061-280800-
SOUTHWEST WISCONSIN

CITY           SKY/WX    TMP DP  RH WIND       PRES   REMARKS
LA CROSSE      CLEAR     61  59  93 CALM      30.14F
SPARTA         PTCLDY    55  53  95 CALM      30.16F
VIROQUA        FAIR      59  59 100 CALM      30.16F
BOSCOBEL       FOG       61  59  93 CALM      30.14F VSB 1/2
PRAIRIE DU CHI CLEAR     60  59  94 CALM      30.13F
PLATTEVILLE    FAIR      64  61  89 NE6       30.15F
$$

WIZ056-057-062-063-064-067-068-280800-
SOUTH CENTRAL WISCONSIN

CITY           SKY/WX    TMP DP  RH WIND       PRES   REMARKS
BARABOO/DELLS  CLEAR     59  56  92 CALM      30.16S
LONE ROCK      FOG       62  58  86 CALM      30.14F VSB 3/4
WATERTOWN      CLEAR     58  58 100 CALM      30.16S
MADISON        CLEAR     60  58  92 NE3       30.15F
MIDDLETON      FAIR      58  58 100 CALM      30.16F
MONROE         PTCLDY    63  61  94 E5        30.15S
JANESVILLE     PTCLDY    63  61  94 CALM      30.15S
$$

WIZ051-052-058>065-066-070>072-280800-
SOUTHEAST WISCONSIN

CITY           SKY/WX    TMP DP  RH WIND       PRES   REMARKS
MILWAUKEE      CLEAR     62  56  80 CALM      30.15F
WAUKESHA       CLEAR     55  55 100 CALM      30.17F
MILWAUKEE/TIMM CLEAR     59  54  82 CALM      30.17S
RACINE         CLEAR     62  55  77 NE5       30.16F
BURLINGTON     CLEAR     55  55 100 CALM      30.15F
KENOSHA        CLEAR     57  55  93 CALM      30.16R
FOND DU LAC    CLOUDY    60  56  86 SW3       30.16S
SHEBOYGAN      CLEAR     55  54  96 CALM      30.17R
WEST BEND      MOCLDY    55  52  88 CALM      30.17S
JUNEAU         CLEAR     59  56  91 CALM      30.17F
$$

LSZ147-162-280800-
LAKE SUPERIOR

STATION/POSITION TIME  TEMP    WIND        PRES    WAVE
                       AIR SEA DIR/SP/G            HT/PER
                 (UTC) (F)     (DEG/KT/KT) (MB)    (FT/S)
W MID LAKE BUOY  0550   58 57  150/  6/  8 1021.1R   0
DEVILS ISLAND    0600   61     160/  7/  9 1020.9S
PORT WING        0600   58     140/  2/  5 1021.0
SAXON HARBOR     0600   54     190/  5/  8 1021.3R
$$

LMZ867-665-643>646-280800-
LAKE MICHIGAN

STATION/POSITION TIME  TEMP    WIND        PRES    WAVE
                       AIR SEA DIR/SP/G            HT/PER
                 (UTC) (F)     (DEG/KT/KT) (MB)    (FT/S)
N MID LAKE BUOY  0550   63 65   80/  6/  8 1022.1R   1/ 3
NORTHPORT PIER   0600   64      80/  8/  9 1022.0R
SISTER BAY       0511   59        CALM       N/A
KEWAUNEE LAKESHO 0600   63      80/  7/ 10 1020.4S
SHEBOYGAN LAKESH 0600   64 69  210/  3/  3 1021.5R
ATWATER BUOY     0600   68     100/  8/ 10 1022.0F
MILWAUKEE LAKESH 0600   67      80/  8/  9   N/A
S MID LAKE BUOY  0550   68 69   50/ 10/ 12 1020.6S   1/ 4
KENOSHA   LAKESH 0500   69      80/  9/ 11 1020.3S
$$

TC  - TEMPERATURE IN CELSIUS
VSB - VISIBILITY IN STATUTE MILES
WCI - WIND CHILL INDEX
HX  - HEAT INDEX



USA.gov is the U.S. government's official web portal to all federal, state and local government web resources and services.